Regional Weather Roundup
Issued by NWS

Home | Current Version | Previous Version | Graphics & Text | Print | Product List | Glossary On
Versions: 1 2 3 4 5 6 7 8 9 10 11 12 13 14 15 16 17 18 19 20 21 22 23 24 25 26 27 28 29 30 31 32 33 34 35 36 37 38 39 40 41 42 43 44 45 46 47 48 49 50
000
ASUS43 KFSD 300710
RWRSD

WEATHER ROUNDUP FOR SOUTH DAKOTA
NATIONAL WEATHER SERVICE SIOUX FALLS SD
200 AM CDT FRI SEP 30 2016

NOTE: "FAIR" INDICATES FEW OR NO CLOUDS BELOW 12,000 FEET WITH NO
SIGNIFICANT WEATHER AND/OR OBSTRUCTIONS TO VISIBILITY.


SDZ001>005-009-010-012>017-300800-
NORTHWEST AND NORTH CENTRAL SOUTH DAKOTA

CITY           SKY/WX    TMP DP  RH WIND       PRES   REMARKS
BUFFALO          N/A     63  42  46 S13       30.04S
FAITH            N/A     55  43  63 SE22      30.15F
MOBRIDGE       CLEAR     58  46  64 SE15G24   30.21F
$$

SDZ012>016-024>037-041>051-057-063-072>074-300800-
SOUTHWEST AND SOUTH CENTRAL SOUTH DAKOTA

CITY           SKY/WX    TMP DP  RH WIND       PRES   REMARKS
RAPID CTY ARPT CLOUDY    61  43  51 SE10      30.16F
PIERRE         CLEAR     54  46  74 SE14      30.23F
CUSTER         CLOUDY    57  40  52 W3        30.26F
ELLSWORTH AFB  CLOUDY    62  43  50 S16       30.13F
PHILIP         PTCLDY    53  41  63 E7        30.19F
PINE RIDGE     CLEAR     59  42  53 S23G32    30.19F
WINNER         FAIR      52  44  74 SE14      30.27F
$$

SDZ004>011-016>023-039-040-300800-
NORTHEAST SOUTH DAKOTA

CITY           SKY/WX    TMP DP  RH WIND       PRES   REMARKS
ABERDEEN       CLEAR     46  43  89 SE7       30.31F
WATERTOWN      CLEAR     52  46  80 SE5       30.35S
BROOKINGS      CLEAR     45  43  93 CALM      30.36R
SISSETON         N/A     41  40  96 SE3       30.36S
$$

SDZ017-020-022-023-036>040-048>070-300800-
SOUTHEAST SOUTH DAKOTA

CITY           SKY/WX    TMP DP  RH WIND       PRES   REMARKS
SIOUX FALLS    CLEAR     47  44  90 NE3       30.35F
HURON          CLEAR     47  44  90 SE8       30.31F
CHAMBERLAIN    CLEAR     49  47  93 SE8       30.29S
MITCHELL       CLEAR     50  46  86 SE7       30.33F
YANKTON        CLEAR     46  45  93 NE6       30.33S
$$

ABBREVIATIONS USED IN REMARKS
   TC - TEMPERATURE IN CELSIUS
  WCI - WIND CHILL INDEX
   HX - HEAT INDEX
  VSB - VISIBILITY





USA.gov is the U.S. government's official web portal to all federal, state and local government web resources and services.